EW6224 Weather Reports


time (UTC)temp
C
wind
direction
speed
KPH
gust
KPH
rain 1hr
cm
rain 24hr
cm
rain mn
cm
humidity
%
barometer
mb
20260503010053 5 0 0.0 0.0 0.00 0.23 0.23 75 1017.5
20260503004615 5 0 0.0 0.0 0.00 0.23 0.23 75 1017.5
20260503003058 5 0 0.0 0.0 0.00 0.23 0.23 76 1017.4
20260503001552 5 0 0.0 0.0 0.00 0.23 0.23 74 1017.4
20260503000050 6 0 0.0 1.6 0.00 0.23 0.23 73 1017.3
20260502234608 6 0 0.0 1.6 0.00 0.23 0.23 71 1017.3
20260502233049 6 0 0.0 1.6 0.00 0.23 0.23 70 1017.2
20260502231549 6 0 0.0 3.2 0.00 0.23 0.23 68 1017.2
20260502230057 6 0 0.0 4.8 0.00 0.23 0.23 66 1017.2
20260502224547 6 360 0.0 6.4 0.00 0.23 0.23 67 1017.2
20260502223101 6 5 0.0 6.4 0.00 0.23 0.23 69 1017.2
20260502221551 6 339 1.6 8.0 0.00 0.23 0.23 66 1017.1
20260502220100 6 355 3.2 8.0 0.00 0.23 0.23 66 1017.1
20260502214550 6 355 1.6 8.0 0.00 0.23 0.23 63 1017.2
20260502213052 6 352 3.2 12.9 0.00 0.23 0.23 64 1017.0
20260502211553 7 348 3.2 12.9 0.00 0.23 0.23 62 1017.0
20260502210055 7 355 3.2 9.7 0.00 0.23 0.23 65 1016.9
20260502204558 6 343 1.6 9.7 0.00 0.23 0.23 65 1016.9
20260502203118 6 17 1.6 14.5 0.00 0.23 0.23 69 1016.9
20260502201604 7 348 6.4 17.7 0.00 0.23 0.23 69 1016.9
20260502200059 7 342 3.2 16.1 0.00 0.23 0.23 66 1016.9
20260502194555 7 0 4.8 14.5 0.00 0.23 0.23 63 1017.1
20260502193109 7 347 3.2 9.7 0.00 0.23 0.23 63 1017.2
20260502191551 7 315 3.2 14.5 0.00 0.23 0.23 64 1017.3
20260502190052 7 343 6.4 17.7 0.00 0.23 0.23 61 1017.3
20260502184555 7 352 9.7 19.3 0.00 0.25 0.23 64 1017.3
20260502183055 7 325 4.8 12.9 0.00 0.25 0.23 69 1017.4
20260502181603 6 323 9.7 20.9 0.00 0.25 0.23 68 1017.4
20260502163100 7 67 3.2 14.5 0.00 0.25 0.23 68 1017.6
20260502161552 6 347 6.4 12.9 0.00 0.25 0.23 68 1017.7
20260502151609 6 355 1.6 16.1 0.03 0.25 0.23 75 1017.6
20260502123057 3 325 3.2 9.7 0.08 0.10 0.08 81 1017.0
20260502121556 2 340 4.8 8.0 0.03 0.05 0.03 82 1017.0
20260502114550 1 342 1.6 6.4 0.00 0.03 0.00 87 1016.9
20260502113102 1 311 0.0 3.2 0.00 0.03 0.00 91 1016.9
20260502111549 0 0 0.0 0.0 0.00 0.03 0.00 93 1016.8
20260502110053 0 0 0.0 0.0 0.00 0.03 0.00 92 1016.8
20260502104557 0 0 0.0 0.0 0.00 0.03 0.00 92 1016.7
20260502103050 0 0 0.0 0.0 0.00 0.03 0.00 92 1016.7
20260502101605 0 0 0.0 0.0 0.00 0.03 0.00 92 1016.7
20260502070111 2 0 0.0 1.6 0.00 0.03 0.00 92 1016.6
20260502064552 2 0 0.0 3.2 0.00 0.03 0.00 93 1016.7
20260502063049 3 0 0.0 1.6 0.00 0.03 0.00 93 1016.8
20260502061547 3 0 0.0 1.6 0.00 0.03 0.00 93 1016.8
20260502060056 3 0 0.0 0.0 0.00 0.03 0.00 93 1016.7
20260502054606 3 0 0.0 1.6 0.00 0.03 0.00 93 1017.0
20260502053057 3 0 0.0 0.0 0.00 0.03 0.00 93 1016.9
20260502051555 3 0 0.0 0.0 0.00 0.03 0.00 93 1016.9
20260502050051 3 0 0.0 1.6 0.00 0.03 0.00 93 1017.0
20260502044550 3 0 0.0 0.0 0.00 0.03 0.00 93 1017.0
20260502043109 3 0 0.0 0.0 0.00 0.03 0.00 94 1017.0
20260502041614 3 0 0.0 1.6 0.00 0.03 0.00 93 1017.0
20260502040057 3 0 0.0 1.6 0.00 0.03 0.00 93 1016.9
20260502034550 3 0 0.0 0.0 0.00 0.03 0.03 92 1016.8
20260502033053 3 0 0.0 0.0 0.00 0.03 0.03 91 1016.8
20260502031551 3 0 0.0 0.0 0.00 0.03 0.03 91 1017.0
20260502030109 4 0 0.0 1.6 0.00 0.03 0.03 91 1016.9
20260502024600 4 0 0.0 1.6 0.00 0.03 0.03 91 1017.1
20260502023125 4 0 0.0 1.6 0.00 0.03 0.03 90 1016.9
20260502021552 5 0 0.0 1.6 0.00 0.03 0.03 89 1016.8
20260502020104 5 0 0.0 1.6 0.00 0.03 0.03 88 1016.5
20260502014606 5 0 0.0 6.4 0.00 0.03 0.03 87 1016.4
20260502013100 5 346 0.0 4.8 0.00 0.03 0.03 88 1016.4
20260502011607 5 0 0.0 1.6 0.00 0.03 0.03 89 1015.9